Temp
14 16 17 18 19 19 18 19 20 21 22 23 24 24 25 25 26 22 31 33 32 31 30 31 33 34 35 38 39 40 34 38 38 37 38 38 37 38 38 35 36 36 35 33 31
11 14 16 17 18 19 19 18 19 20 21 22 23 24 24 25 23 31 32 32 31 31 30 34 35 37 37 38 39 38 25 35 40 40 39 38 38 37 36 35 35 35 35 32 31
9 10 14 16 17 18 18 18 19 20 21 22 23 24 24 24 29 35 31 32 30 30 33 35 36 37 37 39 39 39 33 36 40 40 40 38 38 38 37 35 35 34 34 32 31
8 10 12 14 17 17 17 18 19 20 21 22 23 23 24 22 32 33 31 30 30 29 32 36 37 37 37 38 40 39 40 40 41 40 40 39 39 38 38 38 37 36 34 33 32
8 11 13 14 15 16 17 17 19 21 22 22 23 22 20 30 33 31 30 29 28 29 33 36 37 38 37 39 40 39 40 41 41 40 40 40 39 38 38 38 37 36 34 33 33
11 12 13 14 15 16 17 17 20 21 22 23 23 21 22 30 34 31 31 29 31 31 34 36 37 39 38 39 40 41 41 41 41 41 40 39 39 38 38 38 37 35 34 34 34
12 12 12 13 15 16 18 19 20 22 23 23 22 17 27 31 34 33 32 33 33 33 35 35 37 38 39 39 41 40 39 40 40 40 39 40 38 37 38 37 36 35 35 35 34
12 12 12 14 15 16 18 20 21 21 21 21 21 19 29 33 33 33 33 33 34 34 35 36 36 38 39 40 40 39 40 39 40 40 39 39 37 38 39 37 36 36 35 35 35
10 11 12 15 17 17 18 20 20 19 19 20 19 25 31 31 32 33 33 34 34 34 35 36 37 37 38 37 38 39 38 39 39 40 39 38 28 38 38 38 37 36 36 35 35
9 12 12 14 16 18 20 20 17 17 17 19 23 28 31 34 35 35 34 34 36 36 35 35 36 36 37 38 36 38 38 40 39 39 39 38 37 39 38 38 38 37 36 35 35
9 9 12 14 16 17 19 23 25 24 24 31 33 33 35 35 34 34 35 35 36 35 34 35 35 35 37 38 39 40 40 40 41 41 39 39 39 39 38 38 38 37 36 36 35
9 9 12 14 16 18 17 27 26 25 27 31 33 34 35 35 35 35 35 35 35 34 35 35 35 37 38 39 39 39 40 40 41 40 40 39 39 40 39 38 38 38 37 37 36
8 8 10 15 17 18 23 26 24 25 27 32 34 34 35 35 34 35 36 35 35 35 36 36 37 38 38 38 38 39 39 40 40 40 40 40 38 39 40 39 38 39 38 38 37
8 8 8 12 19 20 25 24 24 24 27 33 34 34 35 35 34 36 37 36 35 35 36 36 39 38 38 38 39 38 40 40 41 38 37 40 38 39 40 40 39 39 39 38 38
8 9 8 11 12 21 24 23 23 25 29 36 35 35 36 34 36 35 36 36 35 36 36 36 37 37 37 38 39 38 41 40 40 40 37 39 38 40 40 40 40 40 39 39 39
8 9 9 14 15 18 20 22 24 27 29 34 35 33 33 35 36 36 35 36 36 36 36 37 39 38 38 39 39 40 39 40 40 40 38 39 38 39 38 40 41 41 40 39 39
9 10 9 10 20 21 21 24 26 28 34 34 34 35 35 35 35 35 34 34 34 33 34 36 37 38 39 37 38 38 38 36 37 37 37 40 39 37 42 42 41 41 42 41 40
9 11 13 15 17 18 19 24 25 31 32 36 36 36 35 36 36 35 34 34 35 35 36 34 34 37 38 37 37 37 38 37 34 37 38 40 38 40 42 42 42 42 43 42 41
8 15 18 19 18 18 22 24 27 30 34 34 35 34 35 36 36 36 35 35 36 36 35 36 35 38 38 38 38 38 38 40 38 39 38 39 40 41 42 42 42 42 42 42 41
9 14 20 20 18 18 21 23 28 31 34 34 33 35 34 35 35 35 35 36 36 37 37 36 35 37 38 38 38 38 40 38 40 36 36 38 39 39 40 40 41 41 42 42 42
11 19 20 18 18 20 21 24 26 28 30 31 32 33 35 35 36 35 35 37 37 37 37 36 36 36 37 36 36 36 38 39 39 39 37 37 39 42 40 40 40 41 42 42 42
15 18 20 18 20 22 22 23 24 28 30 30 31 32 33 35 35 36 35 36 38 37 36 36 36 34 36 38 38 38 37 38 38 36 38 39 39 43 42 41 41 41 42 43 42
15 18 20 20 19 22 23 24 26 27 28 29 30 30 32 33 32 34 35 37 36 36 36 36 34 34 34 37 37 36 37 38 39 39 37 37 38 42 42 42 42 41 41 42 42
13 17 21 21 21 21 21 22 23 26 26 27 28 30 30 30 32 32 33 35 36 35 29 34 35 34 35 35 37 35 36 37 38 38 37 37 38 40 41 40 41 41 41 42 42
13 16 19 18 20 18 17 18 19 18 22 25 26 27 29 28 30 31 32 34 34 33 33 34 33 35 35 36 37 37 37 37 37 37 37 38 38 39 40 40 41 41 41 41 41
11 14 15 16 17 16 16 18 19 19 19 19 21 26 27 28 29 30 31 32 32 34 33 34 32 34 34 36 36 36 37 37 37 37 37 38 38 40 41 41 41 41 40 40 41
10 11 12 13 15 17 17 16 17 19 19 19 18 16 21 24 25 26 29 33 33 32 32 33 33 32 31 34 35 34 36 36 37 38 37 36 37 39 39 40 40 41 41 40 40
Height
806 802 799 795 792 789 786 782 779 775 773 770 767 764 763 759 755 753 746 741 743 743 744 745 744 741 738 730 719 716 759 741 733 741 739 729 737 734 733 750 750 749 757 772 782
806 802 798 795 792 788 785 781 778 774 771 768 765 762 760 756 751 742 736 736 739 741 743 739 738 735 734 727 720 732 784 746 709 713 725 728 732 738 746 755 756 759 757 775 783
807 802 797 793 790 787 783 779 776 772 770 766 763 760 758 755 745 722 731 732 733 737 738 735 732 730 733 719 719 720 760 728 711 710 710 726 730 731 742 758 753 763 766 775 782
807 802 798 793 788 785 780 776 772 769 767 764 761 759 756 756 750 726 730 732 734 736 736 731 728 732 735 732 715 729 713 712 708 710 712 723 721 735 738 736 741 752 763 773 779
806 802 797 793 788 783 778 773 769 766 763 761 759 757 756 746 732 725 728 730 733 736 733 726 728 726 734 722 715 722 714 707 705 709 711 710 726 732 739 736 741 750 762 770 775
804 800 795 790 785 780 775 769 765 761 758 756 755 756 756 746 722 723 726 729 730 732 728 725 721 718 721 720 717 706 708 708 703 706 711 719 724 732 735 736 743 752 760 766 771
802 798 793 787 781 776 771 765 760 756 752 750 750 753 746 729 719 721 723 723 724 726 723 723 721 721 718 722 704 708 723 711 710 708 717 711 735 740 727 737 746 752 757 762 767
802 797 791 784 778 773 766 760 754 750 747 746 746 752 735 714 716 716 719 719 720 720 721 718 721 717 716 706 708 718 716 729 710 711 712 716 745 727 723 736 743 749 754 759 763
801 795 789 782 775 767 760 755 750 748 746 745 747 744 725 710 712 711 713 714 714 716 717 718 717 721 720 729 730 719 736 724 722 705 714 723 776 720 721 731 739 745 749 755 761
800 793 787 780 773 764 755 751 747 747 747 748 744 740 712 704 700 703 705 708 708 711 717 720 720 728 726 726 748 732 728 709 720 712 713 726 734 718 722 727 734 740 744 751 755
799 792 784 777 770 763 755 749 744 743 740 717 706 702 694 696 700 702 702 704 705 710 723 715 727 730 721 713 710 703 706 713 698 695 716 722 724 721 721 724 729 734 740 745 749
797 790 783 775 767 762 758 746 747 750 734 710 702 698 693 691 698 695 698 706 708 719 711 717 724 706 704 705 709 706 706 705 693 693 707 714 718 708 715 722 721 726 732 738 742
796 791 782 771 764 760 757 750 751 748 734 695 681 683 684 690 693 692 689 695 703 711 707 708 703 697 701 705 711 707 707 700 702 696 704 709 725 713 704 708 715 715 717 724 731
794 789 784 773 766 761 751 752 751 749 738 690 679 673 675 679 688 679 679 689 695 705 700 700 684 695 702 707 701 716 694 692 694 719 739 705 742 712 704 707 708 712 713 715 721
791 786 782 780 774 761 754 754 752 747 746 665 669 661 663 677 666 673 673 680 695 693 693 697 693 693 702 697 691 704 685 694 693 701 722 709 728 705 693 703 701 701 703 706 709
788 782 779 774 771 760 757 753 750 750 729 674 661 673 677 670 665 666 674 672 677 688 683 684 669 680 682 683 683 685 693 692 693 698 728 707 716 712 714 692 687 683 688 696 701
783 776 774 774 762 757 756 751 746 732 668 670 668 663 668 668 668 669 679 683 691 707 701 688 682 672 672 693 684 693 704 730 732 726 730 690 705 714 672 670 677 678 675 679 689
778 769 761 761 758 758 757 748 737 678 677 644 651 654 665 654 659 662 673 681 673 675 682 698 705 677 669 680 694 692 692 713 745 728 716 687 707 688 658 657 660 662 663 665 677
773 763 755 750 752 755 748 731 695 685 655 657 654 661 659 649 651 656 664 667 661 663 683 680 688 658 663 668 677 684 693 673 698 687 704 689 679 662 655 660 662 665 663 664 668
776 761 742 743 750 750 740 706 682 670 653 653 664 652 659 651 656 654 654 645 653 647 646 660 682 656 656 662 665 671 662 696 679 716 719 694 687 688 672 676 668 667 665 661 661
773 750 738 743 746 741 720 699 693 675 667 666 662 655 645 643 637 647 648 638 633 640 643 653 663 667 655 663 673 678 673 667 673 680 702 709 684 643 656 660 665 661 654 653 655
768 748 735 741 736 719 710 700 692 675 659 662 657 651 648 634 637 632 639 633 616 627 645 643 658 675 661 644 644 656 666 664 676 696 679 677 673 624 635 644 651 650 645 642 644
762 743 732 731 727 710 699 690 679 675 666 661 657 655 648 643 647 634 632 614 623 630 635 636 659 677 673 653 643 656 651 649 651 658 674 687 678 627 629 634 638 647 646 642 642
771 739 718 717 714 709 702 691 683 667 667 662 660 650 655 652 634 641 636 620 620 634 638 633 641 657 661 659 643 660 657 650 652 664 669 665 666 645 638 643 642 645 642 640 641
768 743 727 722 707 712 719 709 702 705 684 669 666 656 651 658 649 643 637 628 623 632 638 638 655 642 639 634 634 638 646 649 653 651 662 655 656 643 635 636 635 637 638 640 639
771 752 746 736 726 722 718 711 705 699 698 696 683 660 651 650 643 646 636 632 630 629 637 630 653 644 646 633 636 641 632 636 642 646 645 647 646 623 622 620 627 629 635 639 638
768 764 757 742 728 719 713 714 705 694 699 699 699 702 674 660 653 642 628 616 620 628 632 634 640 654 661 639 639 655 634 629 627 625 637 655 639 628 626 623 622 624 626 633 634
Wind_Speed
23 22 21 21 21 21 24 24 23 21 20 20 21 22 21 23 22 7 11 12 12 14 12 11 16 15 15 16 16 14 5 3 2 15 10 12 12 8 11 12 11 2 20 23 25
24 24 23 23 22 21 23 25 25 24 22 21 20 22 21 22 19 22 18 16 18 15 14 19 16 16 13 14 12 4 8 7 8 11 15 10 12 11 12 14 13 8 25 28 26
24 24 23 23 23 22 25 27 26 26 25 23 21 20 19 18 18 9 10 3 18 20 20 19 17 15 17 16 14 13 16 25 5 4 8 13 11 12 11 12 16 15 21 23 24
26 26 26 25 24 24 25 26 26 26 26 25 23 21 16 7 7 8 4 5 2 19 21 19 19 18 18 17 14 15 11 2 5 9 7 15 13 12 8 12 16 17 20 22 20
26 28 29 28 27 26 27 29 27 25 24 25 24 20 7 10 18 9 7 6 10 18 23 19 21 19 21 17 16 11 12 7 5 9 9 14 13 11 9 7 14 19 20 22 20
27 28 30 30 29 29 30 31 29 27 25 24 22 11 8 19 15 8 7 11 13 19 23 22 18 18 18 20 16 9 9 9 5 10 10 10 16 10 13 10 15 18 20 21 21
28 30 32 33 33 31 33 32 31 27 24 20 16 7 13 19 7 6 13 14 15 18 19 25 24 18 20 20 17 14 9 9 8 11 12 12 14 14 18 13 16 17 18 20 20
30 32 34 34 33 34 36 32 26 22 14 8 5 8 9 10 13 18 16 17 14 16 21 20 24 23 19 19 22 18 16 14 14 14 11 18 16 16 17 17 16 17 17 18 20
33 32 34 34 34 39 38 24 21 8 2 7 7 10 15 8 13 17 19 19 18 16 17 19 14 22 18 18 16 17 17 20 16 16 14 16 11 18 16 17 16 16 17 18 19
34 33 36 36 34 39 30 16 12 2 2 6 11 7 12 13 12 10 14 18 16 14 13 17 14 19 19 18 18 20 22 20 18 17 12 14 3 18 16 16 16 16 17 18 20
36 36 36 37 37 29 23 6 5 7 15 15 7 12 9 10 8 12 13 17 16 17 18 21 18 24 27 25 24 23 20 15 14 25 19 18 14 13 14 16 16 18 17 19 20
37 38 38 39 35 10 12 8 7 8 14 20 26 27 26 17 14 16 17 17 18 20 21 17 24 25 25 26 24 27 23 18 14 21 21 18 19 18 18 15 16 18 19 20 20
37 38 40 38 21 6 13 8 5 15 9 17 26 25 25 23 25 19 21 21 21 23 24 24 22 25 25 26 27 26 25 19 17 25 19 15 18 18 16 19 16 17 18 21 22
37 39 40 40 11 21 7 3 10 11 7 13 10 10 16 15 18 27 27 23 20 23 25 24 21 25 27 28 27 25 25 24 20 13 12 19 16 21 19 20 20 19 19 21 22
37 39 40 26 20 9 8 12 12 6 7 10 12 15 16 18 11 19 29 27 26 22 19 25 24 25 29 30 29 25 24 24 23 18 24 24 17 13 22 20 22 20 22 21 21
37 39 42 17 14 17 16 8 9 8 14 8 11 14 18 21 14 10 20 25 24 23 24 25 21 27 23 26 24 24 24 25 24 19 17 23 18 20 16 15 14 19 22 22 22
38 40 33 20 11 3 10 9 7 11 3 12 15 19 21 21 20 15 20 26 25 25 24 23 28 23 25 24 24 28 25 16 20 18 19 22 21 22 19 16 20 16 19 23 23
39 33 20 16 13 11 10 9 17 12 29 2 16 20 24 20 19 20 18 22 29 24 17 21 21 29 20 28 28 31 29 20 26 18 19 23 22 22 17 11 7 10 11 15 22
37 21 18 16 11 14 9 16 15 22 17 19 13 20 23 22 19 20 24 23 27 28 25 20 25 19 29 26 26 30 29 28 27 24 19 20 25 23 12 19 17 17 17 12 20
26 26 21 9 8 13 11 29 22 32 15 16 25 19 22 24 20 20 22 23 25 29 26 21 17 23 25 24 26 33 24 27 22 28 26 24 23 18 21 19 19 14 17 13 18
15 6 7 4 9 9 16 24 27 35 33 25 24 26 27 24 26 22 24 21 24 26 26 25 18 15 22 29 30 21 27 24 26 24 21 20 19 20 17 17 20 22 21 15 17
12 7 8 5 9 9 18 27 26 30 27 29 24 27 27 25 26 22 23 25 20 22 29 26 16 15 20 25 26 27 28 32 18 27 21 22 19 15 16 16 13 12 12 16 15
7 12 21 11 12 15 22 29 28 29 29 30 28 30 28 27 23 23 20 17 6 16 21 22 20 17 20 19 23 30 31 32 31 22 26 22 20 22 13 17 22 18 18 19 5
7 7 9 11 12 18 21 22 23 20 22 22 26 25 28 29 26 22 23 20 16 15 5 9 21 24 18 22 18 28 29 30 29 22 22 26 26 24 21 13 11 14 13 10 8
7 10 11 11 12 12 17 22 13 20 25 21 25 30 27 29 26 25 26 21 23 18 19 17 19 23 26 25 21 23 28 28 31 29 28 24 29 25 23 23 19 20 16 16 15
5 7 8 13 18 20 19 20 18 19 16 23 24 21 25 26 24 26 28 23 19 21 21 21 18 19 21 24 25 24 23 30 29 30 30 29 31 25 27 25 18 17 18 17 17
13 16 8 9 17 14 12 21 26 13 9 19 9 15 20 16 20 19 20 22 25 18 19 22 17 19 21 22 19 23 27 25 24 28 28 28 31 27 28 25 23 24 21 21 21
Wind_Direction
355 352 350 347 346 342 342 338 333 329 327 324 324 324 328 324 320 276 258 261 208 234 178 201 217 227 236 248 250 273 335 283 169 82 124 145 121 141 93 133 153 128 132 144 149
353 352 349 347 344 341 339 336 332 329 325 320 318 319 326 325 307 275 272 244 235 229 201 206 210 215 226 232 240 216 342 312 55 116 172 142 136 138 156 148 140 144 118 143 157
350 349 349 346 345 343 338 334 330 326 323 318 314 315 324 324 281 259 100 75 218 216 219 211 224 216 232 238 224 248 180 249 116 47 148 143 150 147 160 165 157 150 143 154 163
349 349 348 345 342 339 334 330 326 322 319 316 311 312 321 301 288 122 158 75 209 197 223 211 225 218 234 236 234 250 252 296 338 111 244 150 150 158 175 158 149 153 154 163 169
349 350 351 346 341 336 332 328 323 317 313 311 307 310 318 245 252 217 209 239 185 198 214 216 220 223 230 237 237 229 271 275 242 167 227 153 150 151 163 143 143 144 159 171 175
349 349 348 344 340 337 332 326 321 313 307 303 298 298 255 262 263 164 200 176 192 202 214 226 223 227 243 246 257 225 237 278 267 173 180 181 149 155 151 159 145 151 168 176 181
348 347 346 344 341 336 329 323 317 310 304 296 285 218 259 251 247 204 192 204 207 204 222 218 231 226 236 256 247 265 243 211 225 158 161 207 161 196 153 163 157 165 174 178 185
347 345 344 342 339 335 328 320 311 313 306 287 228 197 259 270 231 229 220 227 222 226 226 222 221 243 247 232 252 229 234 231 158 163 145 228 170 177 155 170 168 175 178 183 189
348 345 344 341 337 332 327 322 310 313 324 137 162 223 254 169 222 227 214 222 208 218 217 231 235 227 238 243 244 222 228 232 152 178 156 228 184 167 166 182 180 179 182 187 190
348 344 344 341 337 331 323 320 293 239 195 233 263 241 243 222 187 174 204 214 193 192 196 210 216 215 226 218 225 219 223 221 171 174 188 214 164 150 169 192 189 184 186 191 193
349 347 343 338 338 335 334 309 226 196 222 243 244 229 127 194 152 206 184 201 197 194 203 199 205 210 212 223 227 235 215 232 214 166 198 197 223 156 176 202 196 185 196 193 201
346 347 340 337 337 334 321 293 32 332 291 262 254 254 254 258 222 220 178 199 204 208 209 183 216 214 220 219 227 241 246 225 206 159 194 205 204 185 178 203 209 199 197 203 201
342 345 343 335 330 318 319 314 341 337 266 273 236 236 232 224 236 226 200 206 209 211 209 217 209 216 216 224 222 230 243 240 220 155 205 229 222 204 190 189 212 214 207 204 207
338 338 342 340 303 332 293 0 311 325 276 262 197 228 214 205 231 223 228 213 226 221 223 224 221 203 220 221 225 226 230 252 234 169 231 207 247 194 209 205 197 212 216 208 205
333 333 336 338 297 289 346 317 314 264 279 110 137 135 178 190 121 190 209 204 221 215 220 222 224 218 212 221 221 230 227 233 248 211 211 203 224 231 207 199 196 209 206 216 205
328 328 330 331 261 267 293 289 274 233 237 193 160 186 181 208 227 137 194 220 218 231 226 238 209 226 224 223 223 230 238 239 234 246 236 239 216 232 189 215 197 202 200 206 212
327 325 315 278 250 325 308 270 224 231 137 206 191 190 202 196 212 182 195 198 204 213 220 224 232 217 235 214 223 222 226 230 231 222 239 230 220 231 215 193 206 225 199 196 201
327 326 303 252 252 271 247 224 238 232 226 128 202 199 204 217 202 191 201 205 212 214 219 215 217 226 205 227 220 216 220 222 224 227 224 232 233 227 223 220 208 226 249 200 190
329 317 291 264 240 228 229 222 229 235 266 231 219 238 207 221 222 208 207 213 206 217 223 214 223 213 216 218 227 220 220 228 235 232 237 227 220 245 234 224 223 235 248 210 186
318 301 274 244 215 217 230 237 238 252 255 255 241 226 230 209 205 236 206 213 215 210 228 233 244 209 213 217 224 237 219 222 229 236 230 228 236 218 206 228 243 229 241 214 198
296 287 102 200 210 231 237 244 242 260 268 260 257 243 239 231 222 211 235 231 211 214 212 231 240 233 209 204 218 220 236 221 231 236 243 243 234 223 206 205 220 227 227 219 203
296 272 135 224 242 236 246 252 263 266 263 246 259 264 254 249 243 238 213 234 204 219 208 213 227 222 238 224 213 229 226 234 228 224 241 256 248 205 206 187 227 255 260 211 200
282 290 279 224 254 250 251 259 251 257 257 257 246 242 256 257 247 241 223 240 204 227 230 196 224 226 223 232 217 216 232 224 236 230 229 237 238 253 216 218 206 214 237 249 148
287 283 269 199 251 267 276 280 279 278 266 274 263 257 242 252 250 245 240 233 193 224 29 281 223 225 224 224 227 215 221 237 231 234 233 239 243 238 237 210 226 212 229 239 220
266 272 317 294 277 328 319 309 291 296 294 269 256 253 247 237 239 239 239 230 235 214 240 237 236 235 225 256 231 225 218 228 238 232 238 239 236 239 236 229 217 216 240 247 243
280 306 316 287 294 289 278 267 267 270 282 288 302 267 259 254 233 234 233 229 223 210 218 215 230 242 242 230 240 253 237 218 223 242 249 248 252 244 240 252 239 218 226 246 266
270 279 275 285 282 274 267 271 303 297 263 250 342 319 301 355 332 319 303 236 230 230 211 216 214 220 233 239 244 235 239 246 245 226 226 238 251 255 257 254 245 234 239 247 252